ICT,Max TemperatureF,Mean TemperatureF,Min TemperatureF,Max Dew PointF,MeanDew PointF,Min DewpointF,Max Humidity, Mean Humidity, Min Humidity, Max Sea Level PressureIn, Mean Sea Level PressureIn, Min Sea Level PressureIn, Max VisibilityMiles, Mean VisibilityMiles, Min VisibilityMiles, Max Wind SpeedMPH, Mean Wind SpeedMPH, Max Gust SpeedMPH,PrecipitationIn, CloudCover, Events, WindDirDegrees
2013-11-1,87,82,78,75,73,68,89,70,58,29.92,29.84,29.77,6,6,6,9,5,,0.00,1,,190
2013-11-2,87,82,77,79,74,72,94,76,62,29.89,29.82,29.77,6,6,6,8,2,,0.00,2,,145
2013-11-3,87,81,75,75,72,68,89,70,52,29.89,29.84,29.77,6,6,6,8,4,,0.00,1,,111
2013-11-4,89,82,75,72,68,63,83,62,40,29.95,29.87,29.80,6,6,6,8,4,,0.00,2,,35
2013-11-5,89,82,75,75,72,68,89,73,55,29.92,29.85,29.77,6,6,5,13,6,,0.00,5,Rain,22
2013-11-6,87,82,77,77,75,73,94,79,62,29.86,29.80,29.71,6,6,0,14,5,25,0.00,3,Rain-Thunderstorm,333
2013-11-7,84,80,77,77,75,73,94,87,74,29.83,29.78,29.71,6,6,4,18,7,32,0.00,5,Rain,55
2013-11-8,89,83,77,79,75,72,94,79,55,29.86,29.79,29.71,6,6,6,12,6,,0.00,2,,91
2013-11-9,87,82,78,77,75,73,94,79,62,29.80,29.75,29.68,6,6,5,8,3,,0.00,2,Rain,321
2013-11-10,87,82,78,77,73,70,89,72,58,29.74,29.71,29.65,6,6,6,8,5,,0.00,2,,280
2013-11-11,89,84,78,79,75,70,94,75,52,29.80,29.73,29.68,6,6,6,8,3,,0.00,2,,176
2013-11-12,89,84,78,79,77,75,94,85,66,29.83,29.76,29.71,6,6,4,10,3,,0.00,3,Rain-Thunderstorm,74
2013-11-13,87,82,78,79,77,75,94,83,66,29.80,29.76,29.68,6,6,4,9,3,,0.00,3,Rain-Thunderstorm,286
2013-11-14,89,83,77,77,74,70,94,74,55,29.83,29.78,29.71,6,6,4,14,5,,0.00,2,Rain-Thunderstorm,103
2013-11-15,82,78,73,75,72,70,94,80,70,29.86,29.82,29.77,6,6,5,16,8,,0.00,6,Rain,19
2013-11-16,89,82,75,77,74,72,94,79,59,29.89,29.84,29.77,6,6,3,9,5,,0.00,4,Rain,53
2013-11-17,82,80,77,75,74,73,94,85,74,29.95,29.88,29.83,6,6,6,8,5,,0.00,4,Rain,30
2013-11-18,87,81,75,75,72,70,89,74,55,29.92,29.87,29.80,6,6,6,8,4,,0.00,3,,8
2013-11-19,87,81,75,77,72,68,89,72,52,29.92,29.86,29.77,6,6,6,7,4,,0.00,3,,314
2013-11-20,87,81,75,75,73,70,94,73,55,29.92,29.83,29.77,6,6,6,9,3,,0.00,2,,336
2013-11-21,89,83,77,77,73,68,84,70,52,29.83,29.79,29.71,6,6,6,8,3,,0.00,3,,49
2013-11-22,89,83,77,77,73,68,89,71,52,29.86,29.81,29.74,6,6,6,8,3,,0.00,3,,70
2013-11-23,87,82,78,79,75,72,94,78,58,29.89,29.81,29.74,6,6,6,9,3,,0.00,3,,148
2013-11-24,87,82,78,77,74,73,94,78,62,29.89,29.82,29.77,6,6,6,9,4,,0.00,3,,132
2013-11-25,89,83,77,77,75,72,94,80,55,29.83,29.77,29.68,6,6,4,14,4,,0.00,3,Rain,331
2013-11-26,89,84,78,77,73,70,89,72,52,29.83,29.78,29.71,6,6,6,10,4,,0.00,2,,125
2013-11-27,89,83,77,79,76,72,94,81,58,29.89,29.84,29.77,6,6,2,10,4,,0.00,4,Rain,95
2013-11-28,87,82,77,77,75,72,94,83,66,29.95,29.90,29.83,6,6,5,14,4,26,0.00,3,Rain-Thunderstorm,66
2013-11-29,86,78,71,68,66,64,78,63,48,29.98,29.90,29.80,6,6,6,10,8,,0.00,1,,21
2013-11-30,86,78,69,72,68,64,83,68,51,29.95,29.89,29.80,6,6,6,7,4,,0.00,2,,360